Location: Beaver Brook Station
(42.3793°N, 71.2203°W)
Time: 05:48:50
(UTC+00:00)

X-37B - Pass Details

Date: 23 January 2021
Orbit: 383 x 391 km, 45.0° (Epoch: 27 February)

Event Time Altitude Azimuth Distance (km) Brightness Sun altitude
Rises 22:21:25 0° 254° (WSW) 2,266 7.2 -6.6°
Reaches altitude 10° 22:23:29 10° 255° (WSW) 1,414 5.2 -6.9°
Maximum altitude 22:26:40 82° 342° (NNW) 397 0.6 -7.5°
Enters shadow 22:29:44 11° 71° (ENE) 1,366 2.6 -8.0°
